Basel, France

2:02 AM CET on February 20, 2017 (GMT +0100)
Basle-Mulhouse

Weather History for LFSB - January, 2013

Change the Weather History Date:

Thursday, January 3, 2013

  Actual Average Record
Temperature  
Mean Temperature 34 °F -  
Max Temperature 41 °F 39 °F 59 °F (1998)
Min Temperature 26 °F 27 °F 17 °F (1997)
Degree Days  
Heating Degree Days 32    
Moisture  
Dew Point 32 °F    
Average Humidity 86    
Maximum Humidity 100    
Minimum Humidity 69    
Precipitation  
Precipitation 0.02 in - - ()
Sea Level Pressure  
Sea Level Pressure 30.62 in    
Wind  
Wind Speed 5 mph ()    
Max Wind Speed 10 mph    
Max Gust Speed -    
Visibility 6.3 miles    
Events Rain    
Averages and records for this station are not official NWS values.
T = Trace of Precipitation, MM = Missing Value Source: Averaged Metar Reports

Daily Weather History Graph

Daily Weather History Graph

Search for Another Location

Airport or City:

Trip Planner

Search our weather history database for the weather conditions in past years. The results will help you decide how hot, cold, wet, or windy it might be!

Date:

Astronomy

Jan. 03, 2013 Rise Set
Actual Time 8:18 AM CET 4:51 PM CET
Civil Twilight 7:42 AM CET 5:26 PM CET
Nautical Twilight 7:03 AM CET 6:05 PM CET
Astronomical Twilight 6:25 AM CET 6:43 PM CET
Moon 11:39 PM CET (1/3) 10:54 AM CET (1/3)
Length of Visible Light 9h 44m
Length of Day
8h 33m
Waning Gibbous, 68% of the Moon is Illuminated
Jan 3
Waning Gibbous
Jan 5
Last Quarter
Jan 11
New
Jan 19
First Quarter
Jan 27
Full

Hourly Weather History & Observations

Time (CET) Temp. Windchill Dew Point Humidity Pressure Visibility Wind Dir Wind Speed Gust Speed Precip Events Conditions
12:00 AM 28.4 °F - 26.6 °F 93% 30.51 in 2.5 mi Variable 2.3 mph - N/A   Mist
12:30 AM 30.2 °F 25.4 °F 28.4 °F 93% 30.51 in 5.6 mi South 4.6 mph - N/A   Unknown
1:00 AM 30 °F - 29 °F 93% 30.57 in 5 mi South 3.5 mph - -   Clear
1:00 AM 30.2 °F 26.7 °F 28.4 °F 93% 30.51 in 6.2 mi South 3.5 mph - N/A   Unknown
1:30 AM 30.2 °F 25.4 °F 28.4 °F 93% 30.51 in 6.2 mi SSE 4.6 mph - N/A   Unknown
2:00 AM 28.4 °F 24.6 °F 26.6 °F 93% 30.54 in 5.0 mi Variable 3.5 mph - N/A   Unknown
2:30 AM 28.4 °F 23.3 °F 28.4 °F 100% 30.54 in 5.0 mi SSE 4.6 mph - N/A   Unknown
3:00 AM 28.4 °F 22.2 °F 26.6 °F 93% 30.54 in 5.6 mi SE 5.8 mph - N/A   Unknown
3:30 AM 28.4 °F 23.3 °F 28.4 °F 100% 30.54 in 5.6 mi SSE 4.6 mph - N/A   Unknown
4:00 AM 26.6 °F 20.0 °F 24.8 °F 93% 30.54 in 5.6 mi ESE 5.8 mph - N/A   Unknown
4:30 AM 28.4 °F 24.6 °F 26.6 °F 93% 30.57 in - Variable 3.5 mph - N/A   Clear
5:00 AM 30.2 °F 24.3 °F 30.2 °F 100% 30.57 in 5.0 mi SSE 5.8 mph - N/A   Unknown
5:30 AM 32.0 °F 26.4 °F 30.2 °F 93% 30.57 in 5.0 mi SE 5.8 mph - N/A   Unknown
6:00 AM 32.0 °F 26.4 °F 30.2 °F 93% 30.57 in - SE 5.8 mph - N/A   Clear
6:30 AM 30.2 °F 24.3 °F 28.4 °F 93% 30.57 in - SE 5.8 mph - N/A   Clear
7:00 AM 30 °F - 29 °F 93% 30.64 in 7 mi SE 5.8 mph - -   Scattered Clouds
7:00 AM 30.2 °F 24.3 °F 28.4 °F 93% 30.57 in - SE 5.8 mph - N/A   Clear
7:30 AM 30.2 °F 25.4 °F 28.4 °F 93% 30.60 in - ESE 4.6 mph - N/A   Clear
8:00 AM 32.0 °F 27.5 °F 30.2 °F 93% 30.60 in 6.2 mi SSE 4.6 mph - N/A   Mostly Cloudy
8:30 AM 32.0 °F 25.6 °F 30.2 °F 93% 30.60 in 6.2 mi SSE 6.9 mph - N/A   Scattered Clouds
9:00 AM 32.0 °F 26.4 °F 30.2 °F 93% 30.60 in 6.2 mi SE 5.8 mph - N/A   Scattered Clouds
9:30 AM 33.8 °F 28.6 °F 32.0 °F 93% 30.63 in 6.2 mi SSE 5.8 mph - N/A   Mostly Cloudy
10:00 AM 35.6 °F 29.2 °F 32.0 °F 87% 30.63 in 6.2 mi SSE 8.1 mph - N/A   Mostly Cloudy
10:30 AM 37.4 °F 30.3 °F 32.0 °F 81% 30.63 in 6.2 mi SE 10.4 mph - N/A   Mostly Cloudy
11:00 AM 37.4 °F 32.1 °F 32.0 °F 81% 30.66 in 6.2 mi SE 6.9 mph - N/A   Mostly Cloudy
11:30 AM 37.4 °F 32.8 °F 32.0 °F 81% 30.66 in 6.2 mi SSE 5.8 mph - N/A Rain Light Rain
12:00 PM 39.2 °F 33.0 °F 33.8 °F 81% 30.66 in 6.2 mi ESE 9.2 mph - N/A Rain Light Rain
12:30 PM 39.2 °F 34.2 °F 33.8 °F 81% 30.63 in 6.2 mi SE 6.9 mph - N/A Rain Light Rain
1:00 PM 40 °F - 33 °F 69% 30.68 in 10 mi ESE 6.9 mph - - Rain Light Rain
1:00 PM 41.0 °F 36.4 °F 33.8 °F 76% 30.63 in 6.2 mi ESE 6.9 mph - N/A   Mostly Cloudy
1:30 PM 41.0 °F 36.4 °F 33.8 °F 76% 30.63 in 6.2 mi ESE 6.9 mph - N/A Rain Light Rain
2:00 PM 41.0 °F 36.4 °F 35.6 °F 81% 30.63 in 6.2 mi ESE 6.9 mph - N/A Rain Light Rain
2:30 PM 41.0 °F 37.1 °F 35.6 °F 81% 30.63 in 6.2 mi SSE 5.8 mph - N/A   Mostly Cloudy
3:00 PM 41.0 °F 36.4 °F 35.6 °F 81% 30.63 in 6.2 mi SSE 6.9 mph - N/A   Mostly Cloudy
3:30 PM 41.0 °F 37.1 °F 35.6 °F 81% 30.63 in 6.2 mi SE 5.8 mph - N/A   Mostly Cloudy
4:00 PM 41.0 °F 37.1 °F 35.6 °F 81% 30.66 in 6.2 mi SE 5.8 mph - N/A   Mostly Cloudy
4:30 PM 41.0 °F 36.4 °F 35.6 °F 81% 30.66 in 6.2 mi SSE 6.9 mph - N/A   Mostly Cloudy
5:00 PM 41.0 °F 37.1 °F 33.8 °F 76% 30.66 in 6.2 mi SSE 5.8 mph - N/A   Mostly Cloudy
5:30 PM 41.0 °F 36.4 °F 35.6 °F 81% 30.66 in 6.2 mi SE 6.9 mph - N/A   Mostly Cloudy
6:00 PM 41.0 °F 39.0 °F 35.6 °F 81% 30.66 in 6.2 mi Variable 3.5 mph - N/A   Mostly Cloudy
6:30 PM 41.0 °F 38.0 °F 35.6 °F 81% 30.66 in 6.2 mi South 4.6 mph - N/A   Mostly Cloudy
7:00 PM 41 °F - 36 °F 74% 30.72 in 19 mi SSE 4.6 mph - -   Partly Cloudy
7:00 PM 41.0 °F 37.1 °F 35.6 °F 81% 30.69 in 6.2 mi SSE 5.8 mph - N/A   Overcast
7:30 PM 41.0 °F 35.8 °F 35.6 °F 81% 30.66 in 6.2 mi SSE 8.1 mph - N/A   Overcast
8:00 PM 41.0 °F 36.4 °F 35.6 °F 81% 30.69 in 6.2 mi SSE 6.9 mph - N/A   Mostly Cloudy
8:30 PM 41.0 °F 37.1 °F 35.6 °F 81% 30.69 in 6.2 mi SE 5.8 mph - N/A   Mostly Cloudy
9:00 PM 41.0 °F 37.1 °F 35.6 °F 81% 30.69 in 6.2 mi SSE 5.8 mph - N/A   Mostly Cloudy
9:30 PM 41.0 °F 38.0 °F 35.6 °F 81% 30.69 in 6.2 mi SSE 4.6 mph - N/A   Mostly Cloudy
10:00 PM 41.0 °F 39.0 °F 35.6 °F 81% 30.69 in 6.2 mi Variable 3.5 mph - N/A   Mostly Cloudy
10:30 PM 41.0 °F 38.0 °F 35.6 °F 81% 30.69 in 6.2 mi SSE 4.6 mph - N/A   Mostly Cloudy
11:00 PM 41.0 °F 37.1 °F 35.6 °F 81% 30.69 in 6.2 mi South 5.8 mph - N/A   Mostly Cloudy
11:30 PM 41.0 °F 36.4 °F 35.6 °F 81% 30.69 in 6.2 mi SSE 6.9 mph - N/A   Mostly Cloudy